Location: Campo Claro
(10.4907°N, 66.8285°W)
Time: 03:52:44
(UTC+00:00)

BREEZE-M DEB (TANK) - Pass Details

Date: 28 June 2022
Orbit: 342 x 14877 km, 49.6° (Epoch: 14 August)

Event Time Altitude Azimuth Distance (km) Brightness Sun altitude
Rises 22:58:54 0° 319° (NW) 17,794 12.3 -2.3°
Reaches altitude 10° 23:19:34 10° 320° (NW) 18,291 12.2 -6.9°
Maximum altitude 01:23:13 57° 253° (WSW) 8,181 9.1 -33.1°
Enters shadow 01:44:32 24° 182° (S) 5,592 8.0 -37.2°
